NOAA 16 DEB, 41046

Orbit data source: Space-Track

NOAA 16 DEB, 41046 is space debris in SSO originally from a launch on Thu, 21 Sep 2000 UTC launched from the Air Force Western Test Range (AFWTR). Debris objects in space refer to the collection of defunct objects orbiting the Earth. Examples of debris include non-operational satellites, rocket bodies, and fragments generated from explosions, collisions, or faulty payload assembly.

Loading next visibility...
Identifier
41046, 2000-055D
Orbit
SSO
Country
Flag of USUS
Related business
Manufacturer
Unknown
Mission
Spacecraft
Bus & Motor
Unknown
Mass
Unknown
Launch date (UTC)
2000-09-21 (25 years ago)
Launch vehicle
Unknown
Launch site
Air Force Western Test Range (AFWTR)
Object type
Payload
Rocket body
Debris
Shape & HBR
Unknown shape, 0.1 m
Radar Cross Section
Small (<0.1 m²)

Expand to show TLE details & history
Last TLE update: 10 hours ago

TLE from 10 hours ago
0 NOAA 16 DEB
1 41046U 00055D   26036.66108413  .00001180  00000-0  58784-3 0  9996
2 41046  98.6321 104.9347 0011682 341.2187  18.8556 14.18807854526831
Epoch: 2026-02-05T15:51Z
TLE epoch observation values (Epoch: 2026-02-05T15:51:57.668Z)
Latitude
-0.0001°
Longitude
91.13432°
Altitude
824.334 km
Speed
7.445 km/s
True Right ascension
06h 59m 44s
True Declination
0° 00' 00"
Sunlit
Object was in full shadow at epoch
Visualization orbit readout
Latitude
Unknown
Longitude
Unknown
Altitude
Unknown
Speed
Unknown
Apparent Right ascension
Unknown
Apparent Declination
Unknown
Sunlit
N/A
Visualization observer readout
Local Sidereal Time
03:31:56
Azimuth
Unknown
Elevation
Unknown
Doppler factor
Unknown
Orbital elements
Apogee altitude
834.96 km
Perigee altitude
818.127 km
Semi-major axis
7,204.681 km
Eccentricity
0.00117
Inclination
98.6321°
RAAN
104.9347°
Arg. of periapsis
341.2187°
True anomaly
18.89892°
Mean anomaly
18.8556°
Eccentric anomaly
18.87726°
Mean motion
3.54912 °/min
Orbital period
101.43 mins
BSTAR
0.00058784
Loading maneuver chart data...
Computing Atmospheric mass density...
Loading historical data...
Loading historical data...
Loading historical data...
Loading historical data...
Loading historical data...
Loading historical data...
Loading historical data...

Documentation

Showing up to 5 results
|